CDT,Max TemperatureF,Mean TemperatureF,Min TemperatureF,Max Dew PointF,MeanDew PointF,Min DewpointF,Max Humidity, Mean Humidity, Min Humidity, Max Sea Level PressureIn, Mean Sea Level PressureIn, Min Sea Level PressureIn, Max VisibilityMiles, Mean VisibilityMiles, Min VisibilityMiles, Max Wind SpeedMPH, Mean Wind SpeedMPH, Max Gust SpeedMPH,PrecipitationIn, CloudCover, Events, WindDirDegrees
2013-3-1,38,36,33,32,30,28,89,82,75,30.15,30.11,30.07,10,7,2,14,8,18,0.03,8,Snow,309
2013-3-2,34,32,30,31,27,18,92,82,72,30.24,30.17,30.11,10,8,1,17,10,21,0.01,8,Snow,327
2013-3-3,44,33,21,27,21,17,85,59,33,30.24,30.17,30.10,10,10,10,13,3,18,0.00,2,,303
2013-3-4,66,50,33,43,29,22,75,52,28,30.11,29.92,29.76,10,10,10,17,9,33,0.00,3,,158
2013-3-5,60,47,34,55,41,21,93,71,49,30.16,29.90,29.76,10,8,2,28,16,38,0.49,7,Rain,283
2013-3-6,41,33,25,26,24,21,92,74,55,30.35,30.30,30.17,10,10,10,23,10,31,0.00,5,,328
2013-3-7,51,38,24,31,27,23,100,73,46,30.41,30.35,30.31,10,10,10,12,3,15,0.00,0,,44
2013-3-8,63,46,29,31,27,20,85,52,19,30.42,30.32,30.22,10,10,10,10,5,14,0.00,0,,89
2013-3-9,71,58,45,36,31,25,58,41,23,30.21,30.09,29.96,10,10,10,17,7,23,0.01,2,Rain,148
2013-3-10,69,60,51,54,48,37,100,68,36,29.97,29.85,29.78,10,7,2,26,12,38,1.65,6,Rain,188
2013-3-11,52,40,28,52,38,27,96,79,62,30.05,29.89,29.82,10,10,5,18,9,24,0.07,7,Rain,257
2013-3-12,54,39,24,31,26,23,100,66,32,30.20,30.14,30.04,10,10,10,15,5,23,0.00,1,,269
2013-3-13,47,37,26,30,24,21,92,65,37,30.43,30.36,30.20,10,10,10,21,9,26,0.00,1,,315
2013-3-14,57,40,23,33,25,20,88,59,30,30.45,30.34,30.18,10,10,10,10,3,15,0.00,2,,181
2013-3-15,78,61,44,48,42,32,70,51,32,30.15,30.01,29.88,10,10,10,23,12,31,0.00,0,,221
2013-3-16,76,65,54,53,49,45,72,58,43,29.92,29.87,29.83,10,10,10,25,12,35,0.00,2,,246
2013-3-17,66,57,48,52,47,43,86,75,63,29.94,29.86,29.70,10,8,5,17,7,23,0.00,5,,75
2013-3-18,67,52,36,61,51,37,96,80,63,30.05,29.79,29.67,10,8,2,20,9,28,0.63,6,Rain-Thunderstorm,272
2013-3-19,55,43,31,39,30,24,100,66,32,30.21,30.14,30.04,10,8,0,14,6,17,0.00,2,Fog,8
2013-3-20,52,40,28,34,27,15,85,57,29,30.23,30.16,30.07,10,10,10,23,9,30,0.00,2,,327
2013-3-21,45,34,23,32,19,13,81,56,31,30.13,30.06,29.97,10,10,3,12,4,14,0.04,3,Snow,13
2013-3-22,50,42,34,45,37,27,100,77,53,30.02,29.97,29.92,10,8,2,12,5,16,0.03,8,Rain-Snow,106
2013-3-23,55,50,44,48,44,39,93,80,66,29.94,29.86,29.70,10,9,3,15,7,20,0.35,8,Rain,75
2013-3-24,51,43,35,50,43,25,100,80,59,29.89,29.63,29.53,10,5,0,33,15,44,0.11,8,Fog-Rain-Thunderstorm,268
2013-3-25,38,36,33,26,24,22,69,62,54,30.22,30.06,29.90,10,10,10,23,14,30,T,7,Snow,289
2013-3-26,43,34,25,28,26,23,92,71,49,30.37,30.31,30.21,10,10,5,15,6,17,T,6,Snow,311
2013-3-27,55,39,22,33,27,20,96,66,35,30.43,30.36,30.32,10,10,10,15,3,21,0.00,0,,284
2013-3-28,65,47,29,36,31,27,100,63,25,30.38,30.31,30.25,10,10,10,9,2,14,0.00,2,,163
2013-3-29,54,46,38,49,44,33,100,77,54,30.28,30.22,30.18,10,6,1,15,3,18,0.06,7,Rain,77
2013-3-30,56,51,45,54,49,45,100,95,89,30.20,30.09,29.94,10,5,0,10,5,13,0.24,8,Fog-Rain,119
2013-3-31,63,52,40,56,51,41,100,82,64,29.98,29.92,29.89,10,4,0,16,3,21,0.13,6,Fog-Rain,221